Troy, AL

10:46 AM CST on January 20, 2017 (GMT -0600)
Troy Municipal

Weather History for KTOI - January, 2013

Change the Weather History Date:

Thursday, January 10, 2013

  Actual Average Record
Temperature  
Mean Temperature 70 °F 46 °F  
Max Temperature 78 °F 58 °F 78 °F (2013)
Min Temperature 62 °F 35 °F 19 °F (2001)
Degree Days  
Heating Degree Days 0 19  
Month to date heating degree days 145 190  
Since 1 July heating degree days 984 1107  
Cooling Degree Days 4    
Growing Degree Days 18 (Base 50)    
Moisture  
Dew Point 63 °F    
Average Humidity 82    
Maximum Humidity 100    
Minimum Humidity 64    
Precipitation  
Precipitation T in 0.11 in 2.53 in (2008)
Month to date precipitation 0.66 1.49  
Year to date precipitation 0.66 1.49  
Snow  
Snow 0.00 in - - ()
Month to date snowfall 0.0  
Since 1 July snowfall 0.0  
Snow Depth 0.00 in    
Sea Level Pressure  
Sea Level Pressure 30.28 in    
Wind  
Wind Speed 8 mph (ESE)    
Max Wind Speed 16 mph    
Max Gust Speed 23 mph    
Visibility 4 miles    
Events Fog , Rain    
T = Trace of Precipitation, MM = Missing Value Source: NWS Daily Summary

Daily Weather History Graph

Daily Weather History Graph

Search for Another Location

Airport or City:

Trip Planner

Search our weather history database for the weather conditions in past years. The results will help you decide how hot, cold, wet, or windy it might be!

Date:

Astronomy

Jan. 10, 2013 Rise Set
Actual Time 6:45 AM CST 4:58 PM CST
Civil Twilight 6:18 AM CST 5:25 PM CST
Nautical Twilight 5:48 AM CST 5:55 PM CST
Astronomical Twilight 5:18 AM CST 6:24 PM CST
Moon 5:24 AM CST (1/10) 4:04 PM CST (1/10)
Length of Visible Light 11h 06m
Length of Day
10h 13m
Waning Crescent, 2% of the Moon is Illuminated
Jan 10
Waning Crescent
Jan 11
New
Jan 18
First Quarter
Jan 26
Full
Feb 3
Last Quarter

Hourly Weather History & Observations

Time (CST) Temp. Dew Point Humidity Pressure Visibility Wind Dir Wind Speed Gust Speed Precip Events Conditions
12:53 AM 63.0 °F 60.1 °F 90% 30.32 in 5.0 mi East 5.8 mph - N/A   Overcast
1:26 AM 62.6 °F 60.8 °F 94% 30.33 in 5.0 mi East 3.5 mph - N/A   Overcast
1:53 AM 63.0 °F 61.0 °F 93% 30.32 in 4.0 mi East 4.6 mph - N/A   Overcast
2:14 AM 62.6 °F 60.8 °F 94% 30.33 in 2.5 mi ENE 3.5 mph - N/A   Overcast
2:36 AM 62.6 °F 60.8 °F 94% 30.32 in 1.5 mi East 3.5 mph - N/A   Overcast
2:46 AM 62.6 °F 60.8 °F 94% 30.32 in 1.2 mi Calm Calm - N/A   Overcast
2:53 AM 63.0 °F 61.0 °F 93% 30.31 in 1.0 mi East 3.5 mph - N/A   Overcast
3:04 AM 62.6 °F 60.8 °F 94% 30.31 in 0.8 mi East 3.5 mph - N/A   Overcast
3:10 AM 62.6 °F 60.8 °F 94% 30.31 in 0.5 mi Calm Calm - N/A Fog Fog
3:36 AM 62.6 °F 62.6 °F 100% 30.30 in 0.8 mi ENE 4.6 mph - N/A   Overcast
3:43 AM 62.6 °F 62.6 °F 100% 30.30 in 1.2 mi ENE 4.6 mph - N/A   Overcast
3:53 AM 63.0 °F 62.1 °F 97% 30.29 in 1.2 mi Variable 3.5 mph - N/A   Overcast
4:05 AM 62.6 °F 62.6 °F 100% 30.30 in 1.5 mi East 4.6 mph - N/A   Overcast
4:35 AM 62.6 °F 62.6 °F 100% 30.30 in 1.8 mi ESE 3.5 mph - N/A   Overcast
4:46 AM 62.6 °F 62.6 °F 100% 30.30 in 1.5 mi East 4.6 mph - N/A   Overcast
4:53 AM 63.0 °F 62.1 °F 97% 30.29 in 1.5 mi East 5.8 mph - N/A   Overcast
5:13 AM 62.6 °F 62.6 °F 100% 30.30 in 1.2 mi East 4.6 mph - N/A   Overcast
5:20 AM 62.6 °F 62.6 °F 100% 30.29 in 1.0 mi East 3.5 mph - N/A   Overcast
5:28 AM 62.6 °F 62.6 °F 100% 30.30 in 0.8 mi East 3.5 mph - N/A   Overcast
5:53 AM 63.0 °F 62.1 °F 97% 30.29 in 0.8 mi ENE 4.6 mph - N/A   Overcast
6:07 AM 62.6 °F 62.6 °F 100% 30.29 in 1.0 mi East 4.6 mph - N/A   Overcast
6:29 AM 62.6 °F 62.6 °F 100% 30.28 in 1.5 mi East 5.8 mph - N/A   Overcast
6:33 AM 62.6 °F 62.6 °F 100% 30.28 in 1.8 mi East 5.8 mph - N/A   Overcast
6:48 AM 64.4 °F 62.6 °F 94% 30.29 in 2.5 mi East 6.9 mph - N/A   Overcast
6:53 AM 64.0 °F 63.0 °F 96% 30.28 in 2.5 mi ESE 5.8 mph - N/A   Overcast
7:04 AM 64.4 °F 62.6 °F 94% 30.29 in 3.0 mi ESE 6.9 mph - N/A   Overcast
7:36 AM 64.4 °F 62.6 °F 94% 30.29 in 2.5 mi East 5.8 mph - N/A   Overcast
7:53 AM 64.9 °F 64.0 °F 97% 30.28 in 2.5 mi ESE 6.9 mph - N/A   Overcast
8:11 AM 66.2 °F 64.4 °F 94% 30.30 in 3.0 mi East 6.9 mph - N/A   Overcast
8:48 AM 66.2 °F 64.4 °F 94% 30.31 in 2.5 mi ESE 8.1 mph - N/A   Overcast
8:53 AM 66.9 °F 64.0 °F 90% 30.30 in 2.5 mi ESE 8.1 mph - N/A   Overcast
9:28 AM 66.2 °F 64.4 °F 94% 30.30 in 1.5 mi ESE 10.4 mph - N/A   Overcast
9:53 AM 68.0 °F 64.9 °F 90% 30.30 in 1.8 mi SE 8.1 mph - N/A   Overcast
9:59 AM 68.0 °F 64.4 °F 88% 30.31 in 2.0 mi SE 8.1 mph - N/A   Overcast
10:22 AM 69.8 °F 64.4 °F 83% 30.31 in 3.0 mi SE 9.2 mph - N/A   Overcast
10:41 AM 69.8 °F 64.4 °F 83% 30.31 in 5.0 mi SSE 9.2 mph - N/A   Overcast
10:53 AM 70.0 °F 64.9 °F 84% 30.30 in 5.0 mi SSE 9.2 mph - N/A   Haze
11:32 AM 69.8 °F 66.2 °F 88% 30.28 in 2.0 mi SE 8.1 mph - 0.00 in Rain Light Rain
11:41 AM 69.8 °F 64.4 °F 83% 30.28 in 5.0 mi SE 8.1 mph - 0.00 in   Overcast
11:53 AM 70.0 °F 64.9 °F 84% 30.26 in 6.0 mi SE 6.9 mph - 0.00 in   Haze
12:13 PM 71.6 °F 64.4 °F 78% 30.27 in 7.0 mi SSE 9.2 mph - N/A   Overcast
12:25 PM 71.6 °F 62.6 °F 73% 30.26 in 8.0 mi ESE 10.4 mph - N/A   Overcast
12:53 PM 73.9 °F 63.0 °F 68% 30.24 in 8.0 mi SE 10.4 mph 17.3 mph N/A   Overcast
1:53 PM 73.9 °F 62.1 °F 66% 30.22 in 8.0 mi SE 11.5 mph - N/A   Mostly Cloudy
2:53 PM 75.0 °F 62.1 °F 64% 30.21 in 9.0 mi East 9.2 mph - 0.00 in   Clear
3:53 PM 73.0 °F 62.1 °F 68% 30.22 in 9.0 mi ESE 10.4 mph - N/A   Scattered Clouds
4:53 PM 71.1 °F 62.1 °F 73% 30.21 in 8.0 mi ESE 6.9 mph - N/A   Clear
5:53 PM 70.0 °F 63.0 °F 78% 30.22 in 9.0 mi ESE 9.2 mph - N/A   Mostly Cloudy
6:53 PM 68.0 °F 63.0 °F 84% 30.22 in 8.0 mi East 9.2 mph - N/A   Partly Cloudy
7:53 PM 66.9 °F 63.0 °F 87% 30.22 in 7.0 mi ESE 8.1 mph - N/A   Clear
8:53 PM 64.9 °F 62.1 °F 90% 30.21 in 6.0 mi ESE 5.8 mph - N/A   Clear
9:53 PM 64.9 °F 62.1 °F 90% 30.19 in 6.0 mi SE 10.4 mph - N/A   Mostly Cloudy
10:53 PM 64.9 °F 60.1 °F 84% 30.15 in 8.0 mi ESE 13.8 mph - N/A   Mostly Cloudy
11:53 PM 66.9 °F 59.0 °F 76% 30.14 in 10.0 mi South 9.2 mph - N/A   Mostly Cloudy